Location: Newark
(34.0000°S, 64.0000°W)
Time: 09:27:51
(UTC+00:00)

ISS - Visible Passes

Search period start: 27 February 2021 00:00
Search period end: 09 March 2021 00:00
Orbit: 417 x 422 km, 51.6° (Epoch: 27 February)

Date Brightness Start Highest point End Pass type
(mag) Time Alt. Az. Time Alt. Az. Time Alt. Az.
28 Feb -1.0 00:56:42 10° S 00:57:39 13° S 00:57:39 13° S visible
01 Mar -1.1 00:10:25 10° SSE 00:11:02 10° SSE 00:11:40 10° SE visible
02 Mar -1.5 00:57:42 10° SSW 00:59:16 22° SSW 00:59:16 22° SSW visible
03 Mar -2.1 00:10:32 10° SSW 00:13:18 22° SE 00:13:39 22° SE visible
03 Mar -1.5 23:23:33 10° S 23:25:37 15° SSE 23:27:40 10° ESE visible
04 Mar -1.6 00:59:19 10° SW 01:01:05 27° WSW 01:01:05 27° WSW visible
05 Mar -3.7 00:11:49 10° SW 00:15:14 65° SE 00:15:37 59° E visible
05 Mar -2.8 23:24:28 10° SSW 23:27:40 35° SE 23:30:14 14° ENE visible
06 Mar -0.9 01:01:52 10° W 01:03:12 16° WNW 01:03:12 16° WNW visible
07 Mar -2.3 00:13:45 10° WSW 00:16:53 33° NW 00:17:56 26° NNW visible
07 Mar -3.4 23:26:00 10° SW 23:29:25 65° NW 23:32:46 10° NE visible
